SL-8 DEB, 1617

Orbit data source: Space-Track

SL-8 DEB, 1617 is space debris in LEO originally from a launch on Sat, 18 Sep 1965 UTC launched from the Tyuratam Missile And Space Complex (TTMTR). Debris objects in space refer to the collection of defunct objects orbiting the Earth. Examples of debris include non-operational satellites, rocket bodies, and fragments generated from explosions, collisions, or faulty payload assembly.

Loading next visibility...
Identifier
1617, 1965-073J
Orbit
LEO
Country
Flag of CISCIS
Related business
Manufacturer
Unknown
Mission
Spacecraft
Bus & Motor
Unknown
Mass
Unknown
Launch date (UTC)
1965-09-18 (61 years ago)
Launch vehicle
Unknown
Launch site
Tyuratam Missile And Space Complex (TTMTR)
Object type
Payload
Rocket body
Debris
Shape & HBR
Unknown shape, 0.2 m
Radar Cross Section
Medium (>0.1 m² and <1 m²)

Expand to show TLE details & history
Last TLE update: 13 hours ago

TLE from 13 hours ago
0 SL-8 DEB
1 01617U 65073J   26119.51807368 -.00000146  00000-0 -40810-3 0  9992
2 01617  56.1280 192.7422 0235444 243.3929 129.9256 12.34832167724431
Epoch: 2026-04-29T12:26Z
TLE epoch observation values (Epoch: 2026-04-29T12:26:01.565Z)
Latitude
12.6893°
Longitude
157.40904°
Altitude
1,650.891 km
Speed
6.994 km/s
True Right ascension
13h 25m 34s
True Declination
12° 37' 26"
Sunlit
Object was in full shadow at epoch
Visualization orbit readout
Latitude
Unknown
Longitude
Unknown
Altitude
Unknown
Speed
Unknown
Apparent Right ascension
Unknown
Apparent Declination
Unknown
Sunlit
N/A
Visualization observer readout
Local Sidereal Time
08:36:05
Azimuth
Unknown
Elevation
Unknown
Doppler factor
Unknown
Orbital elements
Apogee altitude
1,714.556 km
Perigee altitude
1,342.247 km
Semi-major axis
7,906.538 km
Eccentricity
0.02354
Inclination
56.128°
RAAN
192.7422°
Arg. of periapsis
243.3929°
True anomaly
131.95582°
Mean anomaly
129.9256°
Eccentric anomaly
130.94456°
Mean motion
3.08719 °/min
Orbital period
116.61 mins
BSTAR
-0.0004081
Loading maneuver chart data...
Computing Atmospheric mass density...
Loading historical data...
Loading historical data...
Loading historical data...
Loading historical data...
Loading historical data...
Loading historical data...
Loading historical data...

Documentation

Showing up to 5 results
|